Weather History for Chickasha, OK

Change the Weather History Date:

Wednesday, January 1, 2014

  Actual Average Record
Temperature  
Mean Temperature 38 °F -  
Max Temperature 53 °F 47 °F 75 °F (2006)
Min Temperature 23 °F 24 °F 0 °F (1959)
Degree Days  
Heating Degree Days 27    
Moisture  
Dew Point 29 °F    
Average Humidity 75    
Maximum Humidity 93    
Minimum Humidity 51    
Precipitation  
Precipitation 0.00 in - - ()
Sea Level Pressure  
Sea Level Pressure 30.03 in    
Wind  
Wind Speed 11 mph (NE)    
Max Wind Speed 31 mph    
Max Gust Speed 40 mph    
Visibility 10 miles    
Events      
Averages and records for this station are not official NWS values.
T = Trace of Precipitation, MM = Missing Value Source: NWS Daily Summary

Daily Weather History Graph

Daily Weather History Graph

Search for Another Location

Airport:

Trip Planner

Search our weather history database for the weather conditions in past years. The results will help you decide how hot, cold, wet, or windy it might be!

Date:

Astronomy

Jan. 01, 2014 Rise Set
Actual Time 7:40 AM CST 5:31 PM CST
Civil Twilight 7:12 AM CST 5:59 PM CST
Nautical Twilight 6:40 AM CST 6:30 PM CST
Astronomical Twilight 6:09 AM CST 7:01 PM CST
Moon 7:34 AM CST (1/1) 6:14 PM CST (1/1)
Length of Visible Light 10h 47m
Length of Day
9h 50m
New Moon, 0% of the Moon is Illuminated
Jan 1
New Moon
Jan 7
First Quarter
Jan 15
Full
Jan 23
Last Quarter
Jan 30
New

Hourly Weather History & Observations

Time (CST) Temp. Windchill Dew Point Humidity Pressure Visibility Wind Dir Wind Speed Gust Speed Precip Events Conditions
12:15 AM 35.6 °F 29.9 °F 30.2 °F 81% 30.10 in 10.0 mi SSE 6.9 mph - N/A   Clear
12:35 AM 33.8 °F 28.6 °F 28.4 °F 81% 30.10 in 10.0 mi SSE 5.8 mph - N/A   Clear
12:55 AM 33.8 °F 29.6 °F 30.2 °F 87% 30.09 in 10.0 mi ESE 4.6 mph - N/A   Clear
1:15 AM 33.8 °F 27.7 °F 30.2 °F 87% 30.07 in 10.0 mi SE 6.9 mph - N/A   Clear
1:35 AM 33.8 °F 28.6 °F 28.4 °F 81% 30.06 in 10.0 mi SSE 5.8 mph - N/A   Clear
1:55 AM 33.8 °F 27.0 °F 28.4 °F 81% 30.05 in 10.0 mi SE 8.1 mph - N/A   Clear
2:15 AM 33.8 °F 27.7 °F 30.2 °F 87% 30.05 in 10.0 mi SSE 6.9 mph - N/A   Clear
2:35 AM 33.8 °F 26.4 °F 30.2 °F 87% 30.04 in 10.0 mi SSE 9.2 mph - N/A   Clear
2:55 AM 35.6 °F 29.9 °F 30.2 °F 81% 30.03 in 10.0 mi SE 6.9 mph - N/A   Clear
3:15 AM 33.8 °F 27.0 °F 28.4 °F 81% 30.01 in 10.0 mi SE 8.1 mph - N/A   Clear
3:35 AM 33.8 °F 27.7 °F 30.2 °F 87% 30.01 in 10.0 mi SE 6.9 mph - N/A   Clear
3:55 AM 33.8 °F 27.0 °F 28.4 °F 81% 29.99 in 10.0 mi SE 8.1 mph - N/A   Clear
4:15 AM 33.8 °F 27.7 °F 30.2 °F 87% 29.99 in 10.0 mi SE 6.9 mph - N/A   Clear
4:35 AM 33.8 °F 27.0 °F 28.4 °F 81% 29.97 in 10.0 mi SE 8.1 mph - N/A   Clear
4:55 AM 33.8 °F 27.0 °F 30.2 °F 87% 29.97 in 10.0 mi SE 8.1 mph - N/A   Clear
5:15 AM 33.8 °F 27.0 °F 30.2 °F 87% 29.96 in 10.0 mi SE 8.1 mph - N/A   Clear
5:35 AM 33.8 °F 27.7 °F 30.2 °F 87% 29.95 in 10.0 mi SE 6.9 mph - N/A   Clear
5:55 AM 32.0 °F 27.5 °F 28.4 °F 87% 29.94 in 10.0 mi SE 4.6 mph - N/A   Clear
6:15 AM 32.0 °F 28.7 °F 28.4 °F 87% 29.95 in 10.0 mi East 3.5 mph - N/A   Clear
6:35 AM 30.2 °F 23.4 °F 28.4 °F 93% 29.94 in 10.0 mi East 6.9 mph - N/A   Clear
6:55 AM 33.8 °F 28.6 °F 30.2 °F 87% 29.93 in 10.0 mi ESE 5.8 mph - N/A   Clear
7:15 AM 33.8 °F 26.4 °F 30.2 °F 87% 29.92 in 10.0 mi SE 9.2 mph - N/A   Clear
7:35 AM 33.8 °F 26.4 °F 30.2 °F 87% 29.92 in 10.0 mi SE 9.2 mph - N/A   Clear
7:55 AM 33.8 °F 27.7 °F 32.0 °F 93% 29.92 in 10.0 mi SE 6.9 mph - N/A   Clear
8:15 AM 33.8 °F 26.4 °F 30.2 °F 87% 29.92 in 10.0 mi ESE 9.2 mph - N/A   Clear
8:35 AM 33.8 °F 30.8 °F 32.0 °F 93% 29.92 in 10.0 mi SE 3.5 mph - N/A   Clear
8:55 AM 37.4 °F 31.4 °F 32.0 °F 81% 29.92 in 10.0 mi South 8.1 mph - N/A   Clear
9:15 AM 37.4 °F 29.8 °F 32.0 °F 81% 29.92 in 10.0 mi South 11.5 mph - N/A   Clear
9:35 AM 41.0 °F 35.2 °F 33.8 °F 76% 29.92 in 10.0 mi South 9.2 mph - N/A   Clear
9:55 AM 41.0 °F 35.2 °F 33.8 °F 76% 29.92 in 10.0 mi South 9.2 mph - N/A   Clear
10:15 AM 46.4 °F 41.5 °F 35.6 °F 66% 29.92 in 10.0 mi SSW 10.4 mph - N/A   Clear
10:35 AM 46.4 °F 41.5 °F 35.6 °F 66% 29.91 in 10.0 mi SSW 10.4 mph - N/A   Clear
10:55 AM 48.2 °F - 35.6 °F 62% 29.91 in 10.0 mi SSW 9.2 mph - N/A   Clear
11:15 AM 48.2 °F - 35.6 °F 62% 29.90 in 10.0 mi SW 9.2 mph - N/A   Clear
11:35 AM 50.0 °F - 35.6 °F 58% 29.90 in 10.0 mi SW 9.2 mph - N/A   Clear
11:55 AM 51.8 °F - 35.6 °F 54% 29.90 in 10.0 mi WSW 5.8 mph - N/A   Clear
12:15 PM 51.8 °F - 35.6 °F 54% 29.89 in 10.0 mi West 9.2 mph - N/A   Clear
12:35 PM 53.6 °F - 35.6 °F 51% 29.89 in 10.0 mi WNW 10.4 mph - N/A   Clear
12:55 PM 53.6 °F - 35.6 °F 51% 29.89 in 10.0 mi WNW 9.2 mph - N/A   Clear
1:15 PM 53.6 °F - 35.6 °F 51% 29.88 in 10.0 mi West 5.8 mph - N/A   Clear
1:35 PM 53.6 °F - 35.6 °F 51% 29.88 in 10.0 mi NW 4.6 mph - N/A   Clear
1:55 PM 53.6 °F - 35.6 °F 51% 29.88 in 10.0 mi West 4.6 mph - N/A   Clear
2:15 PM 53.6 °F - 35.6 °F 51% 29.89 in 10.0 mi NW 10.4 mph - N/A   Clear
2:35 PM 53.6 °F - 35.6 °F 51% 29.91 in 10.0 mi NNW 8.1 mph - N/A   Clear
2:55 PM 53.6 °F - 35.6 °F 51% 29.91 in 10.0 mi North 16.1 mph - N/A   Clear
3:15 PM 53.6 °F - 37.4 °F 54% 29.92 in 10.0 mi North 18.4 mph 25.3 mph N/A   Clear
3:35 PM 50.0 °F - 35.6 °F 58% 29.94 in 10.0 mi North 20.7 mph 26.5 mph N/A   Clear
3:55 PM 48.2 °F - 35.6 °F 62% 29.96 in 10.0 mi North 20.7 mph - N/A   Clear
4:15 PM 48.2 °F - 35.6 °F 62% 29.98 in 10.0 mi North 28.8 mph 35.7 mph N/A   Clear
4:35 PM 37.4 °F 24.8 °F 30.2 °F 75% 30.02 in 10.0 mi North 31.1 mph 36.8 mph N/A   Clear
4:55 PM 35.6 °F 23.0 °F 30.2 °F 81% 30.04 in 10.0 mi North 27.6 mph 34.5 mph N/A   Clear
5:15 PM 35.6 °F 23.0 °F 30.2 °F 81% 30.06 in 10.0 mi North 27.6 mph 32.2 mph N/A   Clear
5:35 PM 33.8 °F 20.3 °F 28.4 °F 81% 30.07 in 10.0 mi North 28.8 mph 34.5 mph N/A   Scattered Clouds
5:55 PM 32.0 °F 18.6 °F 26.6 °F 80% 30.09 in 10.0 mi North 25.3 mph 34.5 mph N/A   Mostly Cloudy
6:15 PM 32.0 °F 17.9 °F 26.6 °F 80% 30.11 in 10.0 mi North 28.8 mph 36.8 mph N/A   Overcast
6:35 PM 30.2 °F 16.2 °F 24.8 °F 80% 30.13 in 10.0 mi North 25.3 mph 34.5 mph N/A   Scattered Clouds
6:55 PM 30.2 °F 15.9 °F 23.0 °F 75% 30.16 in 10.0 mi North 26.5 mph 32.2 mph N/A   Clear
7:15 PM 30.2 °F 15.4 °F 23.0 °F 75% 30.18 in 10.0 mi North 28.8 mph 35.7 mph N/A   Clear
7:35 PM 30.2 °F 15.4 °F 21.2 °F 69% 30.20 in 10.0 mi North 28.8 mph 36.8 mph N/A   Mostly Cloudy
7:55 PM 30.2 °F 14.9 °F 21.2 °F 69% 30.20 in 10.0 mi North 31.1 mph 40.3 mph N/A   Overcast
8:15 PM 30.2 °F 16.2 °F 21.2 °F 69% 30.22 in 10.0 mi North 25.3 mph 35.7 mph N/A   Overcast
8:35 PM 30.2 °F 15.9 °F 21.2 °F 69% 30.22 in 10.0 mi North 26.5 mph 32.2 mph N/A   Overcast
8:55 PM 28.4 °F 13.8 °F 19.4 °F 69% 30.24 in 10.0 mi North 25.3 mph 31.1 mph N/A   Scattered Clouds
9:15 PM 28.4 °F 13.5 °F 19.4 °F 69% 30.25 in 10.0 mi North 26.5 mph 32.2 mph N/A   Clear
9:35 PM 24.8 °F 9.3 °F 19.4 °F 80% 30.26 in 10.0 mi North 24.2 mph 35.7 mph N/A   Clear
9:55 PM 24.8 °F 8.1 °F 19.4 °F 80% 30.25 in 10.0 mi North 28.8 mph 34.5 mph N/A   Mostly Cloudy
10:15 PM 24.8 °F 9.3 °F 19.4 °F 80% 30.26 in 10.0 mi North 24.2 mph 39.1 mph N/A   Overcast
10:35 PM 23.0 °F 6.3 °F 19.4 °F 86% 30.28 in 10.0 mi North 26.5 mph 29.9 mph N/A   Overcast
10:55 PM 23.0 °F 8.7 °F 19.4 °F 86% 30.31 in 10.0 mi North 18.4 mph 28.8 mph N/A   Overcast
11:15 PM 23.0 °F 8.7 °F 17.6 °F 80% 30.33 in 10.0 mi North 18.4 mph 28.8 mph N/A   Overcast
11:35 PM 23.0 °F 9.6 °F 17.6 °F 80% 30.33 in 10.0 mi North 16.1 mph 26.5 mph N/A   Overcast
11:55 PM 23.0 °F 8.7 °F 19.4 °F 86% 30.32 in 10.0 mi North 18.4 mph - N/A   Overcast